Location: Unspecified
(35.6961°N, 0.0000°E)
Time: 10:29:57
(UTC+00:00)

Vanguard 3 - Pass Details

Date: 02 June 2019
Orbit: 508 x 3263 km, 33.3° (Epoch: 16 June)

Event Time Altitude Azimuth Distance (km) Brightness Sun altitude
Rises 19:10:52 0° 259° (WSW) 2,655 10.7 -0.8°
Reaches altitude 10° 19:12:48 10° 256° (WSW) 1,856 9.8 -1.2°
Maximum altitude 19:16:49 67° 173° (S) 759 6.9 -1.9°
Drops below altitude 10° 19:22:58 10° 92° (E) 2,799 9.4 -3.0°
Sets 19:26:28 0° 91° (E) 4,174 10.3 -3.6°
